Date String (YYYY-MM-DD hh:mm:ss) UTC,Instrument flags,Ambient pressure (hPa),Sample flow (lpm),Bypass flow (lpm),Sample temperature (°C),Ambient temperature (°C),ASC tube jacket temperature (°C),LED temperature (°C),Box temperature (°C),Sample RH (%),Span deviation,Mass concentration (μg/m³),Mass concentration (μg/m³),Mass concentration (μg/m³)
DateTimeUTC,F1_M11,P_M11,Q1_M11,Q2_M11,T1_M11,T2_M11,T3_M11,T4_M11,T5_M11,U1_M11,ZSPAN_M11,X0_M11,X2_M11,X1_M11
2021-10-23 19:00:00,,0817.6,4.98,0.00,29.6,29.0,00.0,38.6,31.4,08.8,0000.0,0018.85,0003.88,0002.04
2021-10-23 19:01:00,,0817.5,5.00,0.00,29.6,29.0,00.0,38.6,31.4,08.6,0000.0,0019.40,0003.79,0002.03
2021-10-23 19:02:00,,0817.5,5.00,0.00,29.7,29.0,00.0,38.6,31.5,08.9,0000.0,0019.74,0003.77,0002.02
2021-10-23 19:03:00,,0817.5,5.00,0.00,29.7,29.0,00.0,38.6,31.5,08.9,0000.0,0018.85,0003.76,0002.01
2021-10-23 19:04:00,,0817.4,5.00,0.00,29.7,29.0,00.0,38.7,31.5,08.9,0000.0,0017.83,0003.73,0002.01
2021-10-23 19:05:00,,0817.4,4.99,0.00,29.7,29.0,00.0,38.7,31.4,09.0,0000.0,0017.49,0003.75,0002.02
2021-10-23 19:06:00,,0817.3,5.01,0.00,29.7,29.0,00.0,38.7,31.4,08.8,0000.0,0017.71,0003.79,0002.02
2021-10-23 19:07:00,,0817.3,4.98,0.00,29.7,29.0,00.0,38.7,31.4,08.9,0000.0,0018.08,0003.77,0002.00
2021-10-23 19:08:00,,0817.2,5.00,0.00,29.7,29.0,00.0,38.7,31.5,09.2,0000.0,0018.82,0003.78,0002.00
2021-10-23 19:09:00,,0817.2,5.00,0.00,29.7,29.0,00.0,38.7,31.4,09.2,0000.0,0019.23,0003.78,0002.00
2021-10-23 19:10:00,,0817.2,5.00,0.00,29.7,29.1,00.0,38.7,31.5,09.2,0000.0,0016.95,0003.75,0001.99
2021-10-23 19:11:00,,0817.2,4.99,0.00,29.7,29.1,00.0,38.7,31.5,09.1,0000.0,0017.44,0003.81,0002.01
2021-10-23 19:12:00,,0817.2,5.01,0.00,29.8,29.1,00.0,38.7,31.5,09.1,0000.0,0018.76,0003.86,0002.03
2021-10-23 19:13:00,,0817.1,5.00,0.00,29.8,29.1,00.0,38.7,31.5,08.8,0000.0,0018.71,0003.82,0002.02
2021-10-23 19:14:00,,0817.1,4.98,0.00,29.8,29.1,00.0,38.8,31.5,08.8,0000.0,0018.80,0003.78,0002.02
2021-10-23 19:15:00,,0817.1,5.01,0.00,29.8,29.1,00.0,38.8,31.5,08.9,0000.0,0019.65,0003.81,0002.01
2021-10-23 19:16:00,,0817.1,5.00,0.00,29.8,29.1,00.0,38.8,31.6,09.2,0000.0,0019.93,0003.81,0002.03
2021-10-23 19:17:00,,0817.1,5.01,0.00,29.8,29.1,00.0,38.8,31.6,08.4,0000.0,0019.78,0003.82,0002.03
2021-10-23 19:18:00,,0817.1,5.00,0.00,29.8,29.2,00.0,38.8,31.6,08.7,0000.0,0019.73,0003.82,0002.02
2021-10-23 19:19:00,,0817.1,4.98,0.00,29.8,29.2,00.0,38.8,31.6,08.4,0000.0,0017.59,0003.80,0002.02
2021-10-23 19:20:00,,0817.1,4.99,0.00,29.9,29.2,00.0,38.8,31.6,08.4,0000.0,0015.78,0003.74,0002.00
2021-10-23 19:21:00,,0817.1,5.00,0.00,29.9,29.2,00.0,38.8,31.7,08.3,0000.0,0015.78,0003.70,0001.98
2021-10-23 19:22:00,,0817.1,5.00,0.00,29.9,29.2,00.0,38.8,31.7,08.2,0000.0,0016.10,0003.70,0001.94
2021-10-23 19:23:00,,0817.0,5.00,0.00,29.9,29.2,00.0,38.8,31.6,08.2,0000.0,0014.64,0003.68,0001.90
2021-10-23 19:24:00,,0817.0,5.00,0.00,29.9,29.3,00.0,38.9,31.6,08.2,0000.0,0014.44,0003.71,0001.90
2021-10-23 19:25:00,,0817.0,5.00,0.00,29.9,29.3,00.0,38.9,31.7,08.1,0000.0,0014.21,0003.73,0001.87
2021-10-23 19:26:00,,0817.0,4.99,0.00,29.9,29.3,00.0,38.9,31.7,07.9,0000.0,0013.78,0003.73,0001.86
2021-10-23 19:27:00,,0817.0,5.00,0.00,29.9,29.3,00.0,38.9,31.7,08.1,0000.0,0013.70,0003.74,0001.83
2021-10-23 19:28:00,,0817.0,4.99,0.00,30.0,29.3,00.0,38.9,31.7,08.4,0000.0,0014.96,0003.71,0001.81
2021-10-23 19:29:00,,0817.0,5.01,0.00,30.0,29.3,00.0,38.9,31.7,08.3,0000.0,0014.39,0003.72,0001.83
2021-10-23 19:30:00,,0816.9,4.99,0.00,30.0,29.3,00.0,38.9,31.7,08.0,0000.0,0015.34,0003.72,0001.82
2021-10-23 19:31:00,,0816.9,4.99,0.00,30.0,29.3,00.0,39.0,31.7,07.9,0000.0,0015.73,0003.76,0001.82
2021-10-23 19:32:00,,0817.2,5.00,0.00,30.0,29.3,00.0,39.0,31.7,07.9,0000.0,0015.92,0003.78,0001.84
2021-10-23 19:33:00,,0817.1,5.01,0.00,30.0,29.3,00.0,39.0,31.8,08.0,0000.0,0014.58,0003.72,0001.85
2021-10-23 19:34:00,,0817.3,4.99,0.00,30.0,29.3,00.0,39.0,31.8,08.2,0000.0,0013.91,0003.73,0001.86
2021-10-23 19:35:00,,0817.1,5.00,0.00,30.0,29.3,00.0,39.0,31.8,08.4,0000.0,0013.45,0003.76,0001.86
2021-10-23 19:36:00,,0817.2,5.01,0.00,30.0,29.3,00.0,39.0,31.8,08.5,0000.0,0014.92,0003.86,0001.88
2021-10-23 19:37:00,,0817.1,5.01,0.00,30.0,29.3,00.0,39.0,31.8,08.5,0000.0,0015.19,0003.89,0001.90
2021-10-23 19:38:00,,0816.8,4.99,0.00,30.0,29.4,00.0,39.0,31.8,08.4,0000.0,0015.04,0003.90,0001.93
2021-10-23 19:39:00,,0817.1,5.01,0.00,30.1,29.4,00.0,39.0,31.8,08.5,0000.0,0014.13,0003.91,0001.94
2021-10-23 19:40:00,,0817.0,4.99,0.00,30.1,29.4,00.0,39.1,31.8,08.3,0000.0,0015.32,0003.91,0001.93
2021-10-23 19:41:00,,0816.8,5.00,0.00,30.1,29.4,00.0,39.1,31.8,08.2,0000.0,0015.07,0003.92,0001.94
2021-10-23 19:42:00,,0816.9,4.99,0.00,30.1,29.4,00.0,39.1,31.8,08.2,0000.0,0016.01,0003.88,0001.95
2021-10-23 19:43:00,,0816.8,5.00,0.00,30.1,29.4,00.0,39.1,31.8,08.4,0000.0,0016.73,0003.84,0001.95
2021-10-23 19:44:00,,0816.8,5.00,0.00,30.1,29.4,00.0,39.1,31.8,08.5,0000.0,0017.73,0003.91,0001.97
2021-10-23 19:45:00,,0816.9,4.99,0.00,30.1,29.4,00.0,39.1,31.8,08.7,0000.0,0018.63,0003.94,0002.00
2021-10-23 19:46:00,,0816.9,5.00,0.00,30.1,29.4,00.0,39.1,31.8,08.7,0000.0,0019.05,0003.97,0002.01
2021-10-23 19:47:00,,0816.7,5.02,0.00,30.1,29.4,00.0,39.1,31.8,08.6,0000.0,0018.52,0003.89,0002.02
2021-10-23 19:48:00,,0816.9,4.99,0.00,30.1,29.4,00.0,39.1,31.9,08.7,0000.0,0018.50,0003.89,0002.04
2021-10-23 19:49:00,,0816.9,5.00,0.00,30.1,29.4,00.0,39.1,31.9,08.8,0000.0,0019.57,0003.88,0002.04
2021-10-23 19:50:00,,0816.9,5.01,0.00,30.1,29.5,00.0,39.1,31.9,08.8,0000.0,0020.01,0003.91,0002.06
2021-10-23 19:51:00,,0816.8,5.00,0.00,30.1,29.5,00.0,39.1,31.9,08.5,0000.0,0020.18,0003.92,0002.07
2021-10-23 19:52:00,,0816.6,5.00,0.00,30.1,29.5,00.0,39.1,31.9,08.4,0000.0,0018.99,0003.89,0002.09
2021-10-23 19:53:00,,0816.7,5.01,0.00,30.1,29.5,00.0,39.2,31.9,08.6,0000.0,0019.02,0003.91,0002.12
2021-10-23 19:54:00,,0816.8,5.00,0.00,30.1,29.5,00.0,39.2,31.9,08.8,0000.0,0019.64,0003.95,0002.14
2021-10-23 19:55:00,,0816.6,5.00,0.00,30.1,29.5,00.0,39.2,31.9,08.9,0000.0,0019.72,0003.90,0002.13
2021-10-23 19:56:00,,0816.7,5.00,0.00,30.2,29.5,00.0,39.2,32.0,08.8,0000.0,0019.01,0003.83,0002.14
2021-10-23 19:57:00,,0816.5,5.01,0.00,30.2,29.5,00.0,39.2,32.0,08.5,0000.0,0018.96,0003.81,0002.16
2021-10-23 19:58:00,,0816.5,5.00,0.00,30.2,29.5,00.0,39.2,31.9,08.4,0000.0,0018.28,0003.84,0002.18
2021-10-23 19:59:00,,0816.5,5.00,0.00,30.2,29.6,00.0,39.2,31.9,08.7,0000.0,0018.42,0003.86,0002.20
